{"data":{"norad_id":67550,"epoch":"2026-05-25T03:07:40.276992Z","epoch_age_seconds":67337,"freshness":"FRESH","line1":"1 67550U 26014U   26145.13032728  .00020396  00000+0  63204-3 0  9997","line2":"2 67550  97.2874  32.2604 0001162 100.2422 259.8952 15.33463436 20505","mean_motion":15.33463436,"eccentricity":0.0001162,"inclination_deg":97.2874,"raan_deg":32.2604,"arg_perigee_deg":100.2422,"mean_anomaly_deg":259.8952,"bstar":0.00063204,"rev_number":2050,"period_min":93.905075673418,"perigee_km":464.69309320004,"apogee_km":466.28355172498,"semimajor_km":6843.6253224625,"source":"CELESTRAK","updated_at":"2026-05-25T13:38:21.610733Z"}}